Location: Bas Lanzent
(48.1360°N, 3.5871°W)
Time: 05:27:18
(UTC+00:00)

IDEFIX/ARIANE 42P - Pass Details

Date: 18 February 2020
Orbit: 784 x 804 km, 98.3° (Epoch: 09 April)

Event Time Altitude Azimuth Distance (km) Brightness Sun altitude
Rises 04:57:18 0° 6° (N) 3,321 6.0 -23.9°
Reaches altitude 10° 04:59:53 10° 356° (N) 2,383 5.1 -23.5°
Enters shadow 05:02:43 25° 329° (NNW) 1,579 3.9 -23.0°
